Woensdrecht, Netherlands

4:33 PM CEST on July 25, 2016 (GMT +0200)
Woensdrecht Air Base

Weather History for EHWO - May, 2013

Change the Weather History Date:

Thursday, May 9, 2013

  Actual Average Record
Temperature  
Mean Temperature 56 °F -  
Max Temperature 62 °F 64 °F 80 °F (2008)
Min Temperature 50 °F 47 °F 35 °F (2005)
Degree Days  
Heating Degree Days 9    
Growing Degree Days 6 (Base 50)    
Moisture  
Dew Point 45 °F    
Average Humidity 71    
Maximum Humidity 94    
Minimum Humidity 37    
Precipitation  
Precipitation 0.00 in - - ()
Sea Level Pressure  
Sea Level Pressure 29.88 in    
Wind  
Wind Speed 9 mph ()    
Max Wind Speed 16 mph    
Max Gust Speed 28 mph    
Visibility 6.2 miles    
Events Rain    
Averages and records for this station are not official NWS values.
T = Trace of Precipitation, MM = Missing Value Source: Averaged Metar Reports

Daily Weather History Graph

Daily Weather History Graph

Search for Another Location

Airport or City:

Trip Planner

Search our weather history database for the weather conditions in past years. The results will help you decide how hot, cold, wet, or windy it might be!

Date:

Astronomy

May. 09, 2013 Rise Set
Actual Time 6:00 AM CEST 9:18 PM CEST
Civil Twilight 5:20 AM CEST 9:58 PM CEST
Nautical Twilight 4:27 AM CEST 10:52 PM CEST
Astronomical Twilight 3:16 AM CEST 12:05 AM CEST
Moon 5:40 AM CEST (5/9) 8:57 PM CEST (5/9)
Length of Visible Light 16h 38m
Length of Day
15h 18m
Waning Crescent, 0% of the Moon is Illuminated
May 9
Waning Crescent
May 10
New
May 18
First Quarter
May 25
Full
May 31
Last Quarter

Hourly Weather History & Observations

Time (CEST) Temp. Dew Point Humidity Pressure Visibility Wind Dir Wind Speed Gust Speed Precip Events Conditions
12:25 AM 55.4 °F 53.6 °F 94% 29.83 in 6.2 mi South 3.5 mph - N/A   Overcast
12:55 AM 55.4 °F 53.6 °F 94% 29.83 in 6.2 mi SSW 4.6 mph - N/A   Overcast
1:25 AM 55.4 °F 51.8 °F 88% 29.83 in 6.2 mi SSW 4.6 mph - N/A   Partly Cloudy
1:55 AM 55.4 °F 51.8 °F 88% 29.83 in 6.2 mi SSW 4.6 mph - N/A   Overcast
2:15 AM 55.4 °F 51.8 °F 88% 29.83 in 6.2 mi SW 8.1 mph - N/A   Overcast
2:25 AM 55.4 °F 51.8 °F 88% 29.83 in 6.2 mi SW 8.1 mph - N/A   Overcast
2:51 AM 55.4 °F 51.8 °F 88% 29.86 in 6.2 mi SW 9.2 mph - N/A   Overcast
2:55 AM 55.4 °F 51.8 °F 88% 29.86 in 6.2 mi SW 9.2 mph - N/A   Overcast
3:05 AM 55.4 °F 51.8 °F 88% 29.86 in 6.2 mi SW 10.4 mph - N/A   Overcast
3:12 AM 55.4 °F 51.8 °F 88% 29.86 in 6.2 mi SW 10.4 mph - N/A   Overcast
3:25 AM 55.4 °F 51.8 °F 88% 29.86 in 6.2 mi SW 9.2 mph - N/A   Overcast
3:35 AM 55.4 °F 51.8 °F 88% 29.86 in 6.2 mi SW 9.2 mph - N/A   Overcast
3:45 AM 55.4 °F 51.8 °F 88% 29.86 in 6.2 mi SW 8.1 mph - N/A   Mostly Cloudy
3:55 AM 55.4 °F 51.8 °F 88% 29.86 in 6.2 mi SW 9.2 mph - N/A   Mostly Cloudy
4:08 AM 55.4 °F 51.8 °F 88% 29.86 in 6.2 mi SW 11.5 mph - N/A Rain Light Drizzle
4:12 AM 55.4 °F 50.0 °F 82% 29.86 in 6.2 mi SW 13.8 mph - N/A   Light Drizzle
4:16 AM 53.6 °F 50.0 °F 88% 29.86 in 6.2 mi WSW 12.7 mph - N/A   Light Drizzle
4:17 AM 53.6 °F 50.0 °F 88% 29.86 in 6.2 mi WSW 10.4 mph - N/A   Light Drizzle
4:25 AM 53.6 °F 50.0 °F 88% 29.86 in 6.2 mi SW 9.2 mph - N/A   Overcast
4:26 AM 53.6 °F 50.0 °F 88% 29.86 in 6.2 mi SW 9.2 mph - N/A   Mostly Cloudy
4:33 AM 53.6 °F 51.8 °F 94% 29.86 in 6.2 mi SW 9.2 mph - N/A   Overcast
4:47 AM 53.6 °F 51.8 °F 94% 29.86 in 6.2 mi SW 10.4 mph - N/A   Overcast
4:55 AM 53.6 °F 50.0 °F 88% 29.86 in 6.2 mi SW 11.5 mph - N/A   Overcast
5:25 AM 53.6 °F 50.0 °F 88% 29.86 in 6.2 mi SW 9.2 mph - N/A   Overcast
5:41 AM 53.6 °F 48.2 °F 82% 29.86 in 6.2 mi SW 10.4 mph - N/A   Overcast
5:50 AM 53.6 °F 48.2 °F 82% 29.86 in 6.2 mi SW 11.5 mph - N/A   Overcast
5:55 AM 51.8 °F 48.2 °F 88% 29.86 in 6.2 mi SW 11.5 mph - N/A   Overcast
6:00 AM 51.8 °F 46.4 °F 82% 29.89 in 6.2 mi SW 9.2 mph - N/A   Mostly Cloudy
6:10 AM 51.8 °F 46.4 °F 82% 29.89 in 6.2 mi WSW 10.4 mph - N/A   Mostly Cloudy
6:25 AM 51.8 °F 46.4 °F 82% 29.89 in 6.2 mi WSW 10.4 mph - N/A   Mostly Cloudy
6:26 AM 51.8 °F 46.4 °F 82% 29.89 in 6.2 mi WSW 11.5 mph - N/A   Mostly Cloudy
6:33 AM 51.8 °F 46.4 °F 82% 29.89 in 6.2 mi SW 11.5 mph - N/A   Mostly Cloudy
6:40 AM 51.8 °F 46.4 °F 82% 29.89 in 6.2 mi SW 10.4 mph - N/A   Mostly Cloudy
6:43 AM 51.8 °F 46.4 °F 82% 29.89 in 6.2 mi SW 10.4 mph - N/A   Mostly Cloudy
6:50 AM 51.8 °F 46.4 °F 82% 29.89 in 6.2 mi SW 10.4 mph - N/A   Scattered Clouds
6:55 AM 51.8 °F 46.4 °F 82% 29.89 in 6.2 mi SW 11.5 mph - N/A   Mostly Cloudy
7:13 AM 50.0 °F 44.6 °F 82% 29.89 in 6.2 mi SW 12.7 mph - N/A   Mostly Cloudy
7:14 AM 50.0 °F 44.6 °F 82% 29.89 in 6.2 mi SW 12.7 mph - N/A   Mostly Cloudy
7:21 AM 50.0 °F 44.6 °F 82% 29.89 in 6.2 mi SW 13.8 mph - N/A   Mostly Cloudy
7:25 AM 50.0 °F 46.4 °F 87% 29.92 in 6.2 mi WSW 11.5 mph - N/A   Mostly Cloudy
7:55 AM 50.0 °F 44.6 °F 82% 29.92 in 6.2 mi SW 13.8 mph - N/A   Overcast
8:25 AM 50.0 °F 44.6 °F 82% 29.92 in 6.2 mi SW 13.8 mph - N/A   Scattered Clouds
8:26 AM 50.0 °F 44.6 °F 82% 29.92 in 6.2 mi SW 13.8 mph - N/A   Partly Cloudy
8:55 AM 51.8 °F 44.6 °F 76% 29.92 in 6.2 mi WSW 15.0 mph - N/A   Partly Cloudy
9:25 AM 51.8 °F 42.8 °F 71% 29.92 in 6.2 mi WSW 15.0 mph - N/A   Unknown
9:55 AM 55.4 °F 42.8 °F 63% 29.92 in 6.2 mi SW 12.7 mph - N/A   Partly Cloudy
10:25 AM 53.6 °F 39.2 °F 58% 29.92 in 6.2 mi SW 15.0 mph - N/A   Unknown
10:55 AM 55.4 °F 41.0 °F 58% 29.92 in 6.2 mi WSW 15.0 mph - N/A   Unknown
11:25 AM 57.2 °F 41.0 °F 55% 29.92 in 6.2 mi WSW 16.1 mph - N/A   Scattered Clouds
11:55 AM 57.2 °F 41.0 °F 55% 29.92 in 6.2 mi WSW 16.1 mph - N/A   Unknown
12:25 PM 57.2 °F 37.4 °F 48% 29.92 in 6.2 mi WSW 12.7 mph - N/A   Partly Cloudy
12:55 PM 57.2 °F 37.4 °F 48% 29.92 in 6.2 mi WSW 16.1 mph 27.6 mph N/A   Scattered Clouds
1:25 PM 59.0 °F 35.6 °F 42% 29.92 in 6.2 mi SW 13.8 mph - N/A   Scattered Clouds
1:55 PM 59.0 °F 35.6 °F 42% 29.92 in 6.2 mi SW 16.1 mph - N/A   Scattered Clouds
2:25 PM 60.8 °F 37.4 °F 42% 29.89 in 6.2 mi WSW 12.7 mph - N/A   Mostly Cloudy
2:55 PM 62.6 °F 35.6 °F 37% 29.89 in 6.2 mi WSW 13.8 mph - N/A   Scattered Clouds
3:25 PM 60.8 °F 37.4 °F 42% 29.89 in 6.2 mi WSW 13.8 mph - N/A   Mostly Cloudy
3:55 PM 59.0 °F 37.4 °F 45% 29.89 in 6.2 mi SSW 11.5 mph - N/A   Mostly Cloudy
4:25 PM 60.8 °F 37.4 °F 42% 29.89 in 6.2 mi SW 13.8 mph - N/A   Mostly Cloudy
4:55 PM 62.6 °F 39.2 °F 42% 29.89 in 6.2 mi WSW 16.1 mph - N/A   Mostly Cloudy
5:25 PM 59.0 °F 37.4 °F 45% 29.86 in 6.2 mi WSW 11.5 mph - N/A   Overcast
5:55 PM 60.8 °F 39.2 °F 45% 29.86 in 6.2 mi WSW 12.7 mph - N/A   Mostly Cloudy
6:25 PM 60.8 °F 37.4 °F 42% 29.86 in 6.2 mi SW 16.1 mph - N/A   Scattered Clouds
6:55 PM 59.0 °F 37.4 °F 45% 29.86 in 6.2 mi SSW 9.2 mph - N/A   Scattered Clouds
7:25 PM 59.0 °F 37.4 °F 45% 29.86 in 6.2 mi SW 10.4 mph - N/A   Unknown
7:55 PM 59.0 °F 37.4 °F 45% 29.86 in 6.2 mi SW 9.2 mph - N/A   Scattered Clouds
8:25 PM 59.0 °F 37.4 °F 45% 29.86 in 6.2 mi SW 8.1 mph - N/A   Partly Cloudy
8:55 PM 57.2 °F 37.4 °F 48% 29.86 in 6.2 mi SW 9.2 mph - N/A   Unknown
9:25 PM 57.2 °F 37.4 °F 48% 29.86 in 6.2 mi SSW 5.8 mph - N/A   Unknown
9:55 PM 55.4 °F 37.4 °F 51% 29.86 in 6.2 mi South 5.8 mph - N/A   Unknown
10:25 PM 55.4 °F 39.2 °F 54% 29.86 in 6.2 mi South 5.8 mph - N/A   Partly Cloudy
10:55 PM 57.2 °F 39.2 °F 51% 29.86 in 6.2 mi South 8.1 mph - N/A   Overcast
11:25 PM 55.4 °F 39.2 °F 54% 29.83 in 6.2 mi South 6.9 mph - N/A   Unknown
11:55 PM 57.2 °F 41.0 °F 55% 29.83 in 6.2 mi SSW 9.2 mph - N/A   Overcast